Date String (YYYY-MM-DD hh:mm:ss) UTC,Instrument flags,absolute air pressure of the measurement (hPa),sample flow rate (lpm),inlet stack bypass flow (lpm),air temperature of the measurement (°C),ambient temperature measured by the external sensor (°C),aerosol sample conditioner tube jacket temperature (°C),OPC LED temperature (°C),internal box temperature (°C),relative humidity of the measurement (%),span deviation,mass concentration of particles derived from Lorenz-Mie calculation of OPC scattering (μg/m³),mass concentration of particles derived from Lorenz-Mie calculation of OPC scattering (μg/m³),mass concentration of particles derived from Lorenz-Mie calculation of OPC scattering (μg/m³)
DateTimeUTC,F1_M11,P_M11,Q1_M11,Q2_M11,T1_M11,T2_M11,T3_M11,T4_M11,T5_M11,U1_M11,ZSPAN_M11,X0_M11,X2_M11,X1_M11
2024-02-13 16:00:00,SystemResetWarning,0827.2,5.01,000.00,018.7,018.4,000.0,027.0,020.5,15.0,0000.0,0009.19,0005.07,0004.61
2024-02-13 16:01:00,SystemResetWarning,0827.2,5.00,000.00,018.7,018.4,000.0,027.1,020.5,14.3,0000.0,0009.25,0005.09,0004.62
2024-02-13 16:02:00,SystemResetWarning,0827.2,4.98,000.00,018.8,018.4,000.0,027.1,020.5,14.9,0000.0,0010.19,0005.17,0004.68
2024-02-13 16:03:00,SystemResetWarning,0827.2,5.00,000.00,018.8,018.4,000.0,027.1,020.5,14.3,0000.0,0011.40,0005.23,0004.75
2024-02-13 16:04:00,SystemResetWarning,0827.1,5.02,000.00,018.8,018.5,000.0,027.1,020.6,14.6,0000.0,0011.67,0005.30,0004.82
2024-02-13 16:05:00,SystemResetWarning,0827.1,5.00,000.00,018.8,018.5,000.0,027.1,020.6,13.0,0000.0,0011.50,0005.33,0004.83
2024-02-13 16:06:00,SystemResetWarning,0827.1,4.99,000.00,018.8,018.5,000.0,027.1,020.6,13.6,0000.0,0011.65,0005.29,0004.80
2024-02-13 16:07:00,SystemResetWarning,0827.1,5.00,000.00,018.8,018.5,000.0,027.1,020.6,13.4,0000.0,0011.56,0005.27,0004.76
2024-02-13 16:08:00,SystemResetWarning,0827.2,4.99,000.00,018.8,018.5,000.0,027.1,020.6,13.4,0000.0,0011.52,0005.18,0004.66
2024-02-13 16:09:00,SystemResetWarning,0827.2,5.00,000.00,018.8,018.5,000.0,027.1,020.6,13.6,0000.0,0011.52,0005.06,0004.57
2024-02-13 16:10:00,SystemResetWarning,0827.2,5.00,000.00,018.8,018.5,000.0,027.1,020.6,14.0,0000.0,0011.35,0004.94,0004.48
2024-02-13 16:11:00,SystemResetWarning,0827.2,5.00,000.00,018.8,018.5,000.0,027.2,020.6,14.3,0000.0,0011.61,0004.89,0004.42
2024-02-13 16:12:00,SystemResetWarning,0827.2,4.99,000.00,018.8,018.5,000.0,027.2,020.6,14.3,0000.0,0012.16,0004.83,0004.33
2024-02-13 16:13:00,SystemResetWarning,0827.2,5.00,000.00,018.9,018.5,000.0,027.2,020.6,14.2,0000.0,0012.58,0004.70,0004.20
2024-02-13 16:14:00,SystemResetWarning,0827.2,5.00,000.00,018.9,018.5,000.0,027.2,020.6,14.7,0000.0,0011.39,0004.57,0004.06
2024-02-13 16:15:00,SystemResetWarning,0827.3,5.00,000.00,018.9,018.5,000.0,027.2,020.7,14.6,0000.0,0011.25,0004.46,0003.95
2024-02-13 16:16:00,SystemResetWarning,0827.3,5.01,000.00,018.9,018.6,000.0,027.2,020.7,14.6,0000.0,0011.09,0004.38,0003.89
2024-02-13 16:17:00,SystemResetWarning,0827.2,5.00,000.00,018.9,018.6,000.0,027.2,020.7,15.0,0000.0,0012.26,0004.36,0003.88
2024-02-13 16:18:00,SystemResetWarning,0827.2,4.99,000.00,018.9,018.6,000.0,027.2,020.7,15.2,0000.0,0012.26,0004.34,0003.87
2024-02-13 16:19:00,SystemResetWarning,0827.2,5.00,000.00,018.9,018.6,000.0,027.2,020.7,15.1,0000.0,0012.31,0004.32,0003.87
2024-02-13 16:20:00,SystemResetWarning,0827.2,5.00,000.00,019.0,018.6,000.0,027.3,020.7,14.5,0000.0,0012.00,0004.32,0003.87
2024-02-13 16:21:00,SystemResetWarning,0827.2,5.00,000.00,019.0,018.6,000.0,027.3,020.7,14.2,0000.0,0012.08,0004.38,0003.92
2024-02-13 16:22:00,SystemResetWarning,0827.2,5.01,000.00,019.0,018.6,000.0,027.3,020.7,15.1,0000.0,0011.99,0004.40,0003.94
2024-02-13 16:23:00,SystemResetWarning,0827.2,5.00,000.00,019.0,018.7,000.0,027.3,020.8,15.4,0000.0,0011.31,0004.46,0004.02
2024-02-13 16:24:00,SystemResetWarning,0827.2,4.99,000.00,019.0,018.7,000.0,027.3,020.8,14.7,0000.0,0010.33,0004.49,0004.08
2024-02-13 16:25:00,SystemResetWarning,0827.2,4.99,000.00,019.0,018.7,000.0,027.3,020.8,15.3,0000.0,0010.12,0004.55,0004.14
2024-02-13 16:26:00,SystemResetWarning,0827.1,5.00,000.00,019.0,018.7,000.0,027.3,020.8,15.4,0000.0,0009.87,0004.64,0004.19
2024-02-13 16:27:00,SystemResetWarning,0827.1,4.99,000.00,019.0,018.7,000.0,027.3,020.8,15.2,0000.0,0009.76,0004.67,0004.19
2024-02-13 16:28:00,SystemResetWarning,0827.1,5.01,000.00,019.1,018.7,000.0,027.3,020.8,14.5,0000.0,0008.61,0004.69,0004.17
2024-02-13 16:29:00,SystemResetWarning,0827.2,5.01,000.00,019.1,018.7,000.0,027.3,020.8,14.8,0000.0,0008.31,0004.73,0004.19
2024-02-13 16:30:00,SystemResetWarning,0827.1,5.00,000.00,019.1,018.8,000.0,027.4,020.8,15.3,0000.0,0008.08,0004.75,0004.20
2024-02-13 16:31:00,SystemResetWarning,0827.1,5.00,000.00,019.1,018.8,000.0,027.4,020.9,15.2,0000.0,0008.12,0004.76,0004.21
2024-02-13 16:32:00,SystemResetWarning,0827.1,5.00,000.00,019.1,018.8,000.0,027.4,020.9,15.0,0000.0,0008.46,0004.78,0004.22
2024-02-13 16:33:00,SystemResetWarning,0827.1,5.01,000.00,019.1,018.8,000.0,027.4,020.9,14.9,0000.0,0008.53,0004.81,0004.23
2024-02-13 16:34:00,SystemResetWarning,0827.1,4.99,000.00,019.1,018.8,000.0,027.4,020.9,15.5,0000.0,0008.59,0004.81,0004.23
2024-02-13 16:35:00,SystemResetWarning,0827.2,4.99,000.00,019.1,018.8,000.0,027.4,020.9,16.0,0000.0,0008.62,0004.78,0004.20
2024-02-13 16:36:00,SystemResetWarning,0827.1,5.00,000.00,019.1,018.8,000.0,027.4,020.9,15.6,0000.0,0008.69,0004.78,0004.18
2024-02-13 16:37:00,SystemResetWarning,0827.1,5.01,000.00,019.2,018.8,000.0,027.4,020.9,15.6,0000.0,0008.88,0004.79,0004.19
2024-02-13 16:38:00,SystemResetWarning,0827.1,5.01,000.00,019.2,018.8,000.0,027.4,020.9,15.7,0000.0,0009.09,0004.84,0004.22
2024-02-13 16:39:00,SystemResetWarning,0827.1,5.00,000.00,019.2,018.8,000.0,027.4,020.9,15.1,0000.0,0009.40,0004.85,0004.25
2024-02-13 16:40:00,SystemResetWarning,0827.1,5.00,000.00,019.2,018.9,000.0,027.4,021.0,14.7,0000.0,0009.93,0004.81,0004.25
2024-02-13 16:41:00,SystemResetWarning,0827.1,5.00,000.00,019.2,018.9,000.0,027.5,021.0,14.7,0000.0,0010.17,0004.87,0004.27
2024-02-13 16:42:00,SystemResetWarning,0827.1,5.00,000.00,019.2,018.9,000.0,027.5,021.0,14.7,0000.0,0010.26,0004.94,0004.32
2024-02-13 16:43:00,SystemResetWarning,0827.1,4.99,000.00,019.2,018.9,000.0,027.5,021.0,14.3,0000.0,0010.44,0004.97,0004.36
2024-02-13 16:44:00,SystemResetWarning,0827.1,5.00,000.00,019.2,018.9,000.0,027.5,021.0,14.5,0000.0,0010.52,0005.04,0004.40
2024-02-13 16:45:00,SystemResetWarning,0827.1,4.99,000.00,019.3,018.9,000.0,027.5,021.0,14.3,0000.0,0011.65,0005.10,0004.45
2024-02-13 16:46:00,SystemResetWarning,0827.1,5.00,000.00,019.3,018.9,000.0,027.5,021.0,14.1,0000.0,0011.96,0005.13,0004.47
2024-02-13 16:47:00,SystemResetWarning,0827.1,5.00,000.00,019.3,018.9,000.0,027.5,021.1,14.3,0000.0,0012.02,0005.13,0004.49
2024-02-13 16:48:00,SystemResetWarning,0827.1,4.99,000.00,019.3,019.0,000.0,027.5,021.1,14.1,0000.0,0012.24,0005.08,0004.48
2024-02-13 16:49:00,SystemResetWarning,0827.1,5.00,000.00,019.3,019.0,000.0,027.6,021.1,14.0,0000.0,0012.02,0005.05,0004.47
2024-02-13 16:50:00,SystemResetWarning,0827.1,5.00,000.00,019.3,019.0,000.0,027.6,021.1,14.4,0000.0,0011.55,0005.02,0004.45
2024-02-13 16:51:00,SystemResetWarning,0827.0,5.01,000.00,019.3,019.0,000.0,027.6,021.1,14.4,0000.0,0010.70,0004.98,0004.43
2024-02-13 16:52:00,SystemResetWarning,0827.1,5.00,000.00,019.4,019.0,000.0,027.6,021.1,14.2,0000.0,0010.39,0004.89,0004.38
2024-02-13 16:53:00,SystemResetWarning,0827.1,4.99,000.00,019.4,019.0,000.0,027.6,021.1,14.1,0000.0,0010.25,0004.82,0004.32
2024-02-13 16:54:00,SystemResetWarning,0827.1,4.99,000.00,019.4,019.0,000.0,027.6,021.1,14.4,0000.0,0009.76,0004.77,0004.28
2024-02-13 16:55:00,SystemResetWarning,0827.1,5.00,000.00,019.4,019.1,000.0,027.6,021.1,14.3,0000.0,0009.43,0004.63,0004.20
2024-02-13 16:56:00,SystemResetWarning,0827.1,5.01,000.00,019.4,019.1,000.0,027.6,021.2,14.6,0000.0,0008.39,0004.57,0004.16
2024-02-13 16:57:00,SystemResetWarning,0827.1,5.01,000.00,019.4,019.1,000.0,027.7,021.2,14.4,0000.0,0008.01,0004.56,0004.14
2024-02-13 16:58:00,SystemResetWarning,0827.1,5.01,000.00,019.4,019.1,000.0,027.7,021.2,13.1,0000.0,0008.59,0004.53,0004.11
2024-02-13 16:59:00,SystemResetWarning,0827.0,5.00,000.00,019.5,019.1,000.0,027.7,021.2,13.1,0000.0,0008.51,0004.49,0004.08
